, FL

(GMT )
Crestview

Weather History for KEGI - September, 2013

Change the Weather History Date:

Saturday, September 7, 2013

  Actual Average Record
Temperature  
Mean Temperature 78 °F -  
Max Temperature 89 °F - - ()
Min Temperature 67 °F - - ()
Cooling Degree Days 13    
Growing Degree Days 28 (Base 50)    
Moisture  
Dew Point 71 °F    
Average Humidity 80    
Maximum Humidity 99    
Minimum Humidity 57    
Precipitation  
Precipitation 0.05 in - - ()
Sea Level Pressure  
Sea Level Pressure 30.02 in    
Wind  
Wind Speed 4 mph (WSW)    
Max Wind Speed 17 mph    
Max Gust Speed 20 mph    
Visibility 10 miles    
Events Rain , Thunderstorm    
T = Trace of Precipitation, MM = Missing Value Source: NWS Daily Summary

Daily Weather History Graph

Daily Weather History Graph

Search for Another Location

Airport or City:

Trip Planner

Search our weather history database for the weather conditions in past years. The results will help you decide how hot, cold, wet, or windy it might be!

Date:

Astronomy

Sep. 07, 2013 Rise Set
Actual Time 6:26 AM CDT 7:01 PM CDT
Civil Twilight 6:01 AM CDT 7:25 PM CDT
Nautical Twilight 5:33 AM CDT 7:54 PM CDT
Astronomical Twilight 5:04 AM CDT 8:23 PM CDT
Moon 8:26 AM CDT (9/7) 8:14 PM CDT (9/7)
Length of Visible Light 13h 23m
Length of Day
12h 35m
Waxing Crescent, 5% of the Moon is Illuminated
Sep 7
Waxing Crescent
Sep 12
First Quarter
Sep 19
Full
Sep 26
Last Quarter
Oct 4
New

Hourly Weather History & Observations

Time (CDT) Temp. Heat Index Dew Point Humidity Pressure Visibility Wind Dir Wind Speed Gust Speed Precip Events Conditions
12:58 AM 70.3 °F - 69.1 °F 96% 30.02 in 10.0 mi NE 2.3 mph - N/A   Clear
1:58 AM 70.2 °F - 68.7 °F 95% 30.01 in 10.0 mi Calm Calm - N/A   Clear
2:58 AM 69.8 °F - 68.2 °F 95% 30.01 in 10.0 mi North 2.3 mph - N/A   Clear
3:58 AM 68.5 °F - 68.0 °F 98% 30.01 in 10.0 mi Calm Calm - N/A   Clear
4:58 AM 68.7 °F - 68.2 °F 98% 30.01 in 10.0 mi North 3.5 mph - N/A   Clear
5:58 AM 68.5 °F - 67.3 °F 96% 30.02 in 10.0 mi NW 2.3 mph - N/A   Clear
6:58 AM 67.8 °F - 67.6 °F 99% 30.04 in 10.0 mi NNW 2.3 mph - N/A   Clear
7:58 AM 72.0 °F - 69.6 °F 92% 30.04 in 10.0 mi North 1.2 mph - N/A   Clear
8:58 AM 78.3 °F - 71.4 °F 79% 30.06 in 10.0 mi Variable 2.3 mph - N/A   Clear
9:58 AM 84.0 °F 89.9 °F 72.5 °F 68% 30.06 in 10.0 mi NNW 3.5 mph - N/A   Clear
10:58 AM 86.9 °F 94.5 °F 73.6 °F 64% 30.06 in 10.0 mi ENE 4.6 mph - N/A   Partly Cloudy
11:58 AM 89.2 °F 96.4 °F 72.1 °F 57% 30.05 in 10.0 mi ESE 6.9 mph - N/A   Scattered Clouds
12:58 PM 88.3 °F 95.0 °F 72.0 °F 58% 30.04 in 10.0 mi Variable 2.3 mph - N/A   Clear
1:58 PM 86.4 °F 91.1 °F 70.0 °F 58% 30.02 in 10.0 mi SSW 15.0 mph - N/A   Overcast
1:59 PM 86.0 °F 90.4 °F 69.8 °F 58% 30.02 in 10.0 mi SSW 17.3 mph 19.6 mph N/A Rain Light Rain
2:19 PM 78.8 °F - 71.6 °F 78% 30.01 in 10.0 mi SSW 11.5 mph - N/A Rain , Thunderstorm Light Thunderstorms and Rain
2:22 PM 80.6 °F 84.6 °F 71.6 °F 74% 30.02 in 10.0 mi SSW 9.2 mph - N/A Thunderstorm Thunderstorm
2:35 PM 80.6 °F 84.6 °F 71.6 °F 74% 30.01 in 10.0 mi SW 8.1 mph - N/A   Partly Cloudy
2:42 PM 80.6 °F 84.6 °F 71.6 °F 74% 30.01 in 10.0 mi WSW 6.9 mph - N/A Thunderstorm Thunderstorm
2:57 PM 80.6 °F 85.4 °F 73.4 °F 79% 30.01 in 10.0 mi WSW 6.9 mph - N/A   Partly Cloudy
2:58 PM 80.6 °F 85.4 °F 73.4 °F 79% 30.01 in 10.0 mi WSW 8.1 mph - 0.05 in   Partly Cloudy
3:58 PM 83.7 °F 90.4 °F 73.6 °F 72% 29.99 in 10.0 mi West 4.6 mph - N/A   Clear
4:58 PM 88.0 °F 94.2 °F 71.6 °F 58% 29.99 in 10.0 mi SW 6.9 mph - N/A   Clear
5:58 PM 84.6 °F 89.7 °F 71.2 °F 64% 29.99 in 10.0 mi South 6.9 mph - N/A   Clear
6:58 PM 81.5 °F 86.3 °F 72.5 °F 74% 30.00 in 10.0 mi SSW 4.6 mph - N/A   Clear
7:58 PM 77.9 °F - 73.2 °F 85% 30.01 in 10.0 mi West 2.3 mph - N/A   Clear
8:58 PM 74.5 °F - 72.7 °F 94% 30.03 in 10.0 mi Calm Calm - N/A   Clear
9:58 PM 73.8 °F - 72.5 °F 96% 30.02 in 10.0 mi Calm Calm - N/A   Clear
10:58 PM 72.1 °F - 71.8 °F 99% 30.02 in 10.0 mi Calm Calm - N/A   Clear
11:58 PM 71.6 °F - 71.2 °F 99% 30.01 in 10.0 mi Calm Calm - N/A   Clear